ZF1RC George Town KY current weather conditions

sailwx.info

Wind from 047 at 0 knots gusting 0

Air temperature 24.4° C
Dewpoint 22.7° C

Last reported at 2018-Apr-23 11:00 UTC.
Time now 2018-Apr-23 11:38 UTC

Location: N 19°16' W 081°23'.
View on Google Maps.

See reports from other nearby stations

  
Tides and Currents Weather Stations Pressure Air Temp Water Temp Dewpoint Dewpoint Depression Visibility Wind Speed Wind Dir Waves Ship Positions
date/time (UTC)wind fromknots sea level pressurealtimeterstation pressurevisibilityair tempwater tempwave heightnotes
2018-Apr-23 11:00 047 0 gusting 0 24.4
2018-Apr-23 10:30 060 0 gusting 1 24.4
2018-Apr-23 10:00 118 0 gusting 1 24.4
2018-Apr-23 09:30 045 0 gusting 0 24.4
2018-Apr-23 09:00 043 25.0
2018-Apr-23 08:30 157 25.0
2018-Apr-23 08:00 088 25.6
2018-Apr-23 07:30 087 26.1
2018-Apr-23 07:00 104 26.1
2018-Apr-23 06:30 132 0 gusting 0 26.7
2018-Apr-23 06:00 121 26.1
2018-Apr-23 05:30 087 0 gusting 1 26.1
2018-Apr-23 05:00 087 0 gusting 1 26.1
2018-Apr-23 04:30 055 0 gusting 2 26.7
2018-Apr-23 04:00 084 0 gusting 4 26.7
2018-Apr-23 03:30 072 0 gusting 2 26.1
2018-Apr-23 03:00 075 0 gusting 2 26.1
2018-Apr-23 02:30 108 26.7
2018-Apr-23 02:00 073 0 gusting 5 26.7
2018-Apr-23 01:30 078 0 gusting 2 26.7
2018-Apr-23 01:00 126 0 gusting 2 27.2
2018-Apr-23 00:30 132 3 gusting 6 27.2
2018-Apr-23 00:00 148 0 gusting 2 27.8
2018-Apr-22 23:30 112 0 gusting 4 28.3
2018-Apr-22 23:00 215 0 gusting 2 29.4
2018-Apr-22 22:30 091 0 gusting 0 30.6
2018-Apr-22 22:00 177 30.6
2018-Apr-22 21:30 143 31.1
2018-Apr-22 21:00 188 0 gusting 1 31.1
2018-Apr-22 20:30 125 31.7
2018-Apr-22 20:00 158 0 gusting 2 31.1
2018-Apr-22 19:30 116 2 gusting 4 31.1
2018-Apr-22 19:00 033 31.1
2018-Apr-22 18:30 070 2 gusting 4 31.1
2018-Apr-22 18:00 192 0 gusting 2 31.1
2018-Apr-22 17:30 074 31.7
2018-Apr-22 17:00 195 31.7
2018-Apr-22 16:30 107 31.1
2018-Apr-22 16:00 173 31.1
2018-Apr-22 15:30 173 31.1
2018-Apr-22 15:00 084 30.6
2018-Apr-22 14:30 070 0 gusting 1 30.6
2018-Apr-22 14:00 129 30.6
2018-Apr-22 13:30 146 0 gusting 5 29.4
2018-Apr-22 13:00 002 1 gusting 5 28.3
2018-Apr-22 12:30 080 1 gusting 2 27.2
2018-Apr-22 12:00 053 25.0
2018-Apr-22 11:30 043 23.9
2018-Apr-22 11:00 066 0 gusting 1 23.9
2018-Apr-22 10:30 089 0 gusting 0 23.9
2018-Apr-22 10:00 093 0 gusting 2 24.4
2018-Apr-22 09:30 104 0 gusting 1 23.9
2018-Apr-22 09:00 091 23.3
2018-Apr-22 08:30 045 1 gusting 1 23.9
2018-Apr-22 08:00 002 1 gusting 1 24.4
2018-Apr-22 07:30 252 24.4
2018-Apr-22 07:00 062 25.0
2018-Apr-22 06:30 075 0 gusting 2 25.0
2018-Apr-22 06:00 080 1 gusting 5 25.0
2018-Apr-22 05:30 075 1 gusting 2 25.0
2018-Apr-22 05:00 065 0 gusting 1 25.0
2018-Apr-22 04:30 044 0 gusting 1 25.0
2018-Apr-22 04:00 135 1 gusting 1 25.0
2018-Apr-22 03:30 101 0 gusting 1 25.6
2018-Apr-22 03:00 103 1 gusting 1 25.6
2018-Apr-22 02:30 092 0 gusting 1 25.6
2018-Apr-22 02:00 063 0 gusting 2 25.6
2018-Apr-22 01:30 086 0 gusting 2 26.1
2018-Apr-22 01:00 100 1 gusting 2 26.7
2018-Apr-22 00:30 090 26.7
2018-Apr-22 00:00 070 0 gusting 6 27.2
2018-Apr-21 23:30 016 4 gusting 6 27.8
2018-Apr-21 23:00 084 2 gusting 8 28.9
2018-Apr-21 22:30 074 6 gusting 10 29.4
2018-Apr-21 22:00 087 5 gusting 6 29.4
2018-Apr-21 21:30 144 0 gusting 4 28.9
2018-Apr-21 21:00 274 0 gusting 6 29.4
2018-Apr-21 20:30 092 4 gusting 7 30.0
2018-Apr-21 20:00 010 2 gusting 13 30.6
2018-Apr-21 19:30 045 8 gusting 13 30.6
2018-Apr-21 19:00 052 7 gusting 11 30.0
2018-Apr-21 18:30 022 7 gusting 13 30.6
2018-Apr-21 18:00 041 6 gusting 12 30.6
2018-Apr-21 17:30 044 6 gusting 12 30.6
2018-Apr-21 17:00 032 7 gusting 12 30.6
2018-Apr-21 16:30 052 5 gusting 12 30.6
2018-Apr-21 16:00 032 4 gusting 11 30.6
2018-Apr-21 15:30 055 6 gusting 8 30.0
2018-Apr-21 15:00 053 4 gusting 11 30.0
2018-Apr-21 14:30 094 5 gusting 11 29.4
2018-Apr-21 14:00 090 3 gusting 6 29.4
2018-Apr-21 13:30 106 5 gusting 8 28.3
2018-Apr-21 13:00 050 5 gusting 6 28.3
2018-Apr-21 12:30 053 2 gusting 6 27.2
2018-Apr-21 12:00 033 3 gusting 5 26.7
2018-Apr-21 11:30 060 0 gusting 2 26.1
2018-Apr-21 11:00 122 0 gusting 4 26.1